Location: Dodge City Community College Clyde Tombaugh Astronomy Center
(37.7756°N, 100.0412°W)
Time: 14:41:27
(UTC+00:00)

Cosmos 1515 Rocket - Pass Details

Date: 08 December 2021
Orbit: 605 x 630 km, 82.5° (Epoch: 19 January)

Event Time Altitude Azimuth Distance (km) Brightness Sun altitude
Exits shadow 12:10:52 10° 350° (N) 1,951 5.9 -17.7°
Maximum altitude 12:15:10 76° 265° (W) 628 3.4 -16.9°
Drops below altitude 10° 12:19:28 10° 179° (S) 1,946 6.3 -16.1°
Sets 12:21:40 0° 178° (S) 2,844 7.2 -15.7°
